Location: Bidart
(43.4376°N, 1.5913°W)
Time: 13:44:27
(UTC+00:00)

Tiangong - Visible Passes

Search period start: 21 January 2026 00:00
Search period end: 31 January 2026 00:00
Orbit: 378 x 393 km, 41.5° (Epoch: 20 January)

Date Brightness Start Highest point End Pass type
(mag) Time Alt. Az. Time Alt. Az. Time Alt. Az.
21 Jan -0.7 05:27:42 33° SSE 05:27:42 33° SSE 05:30:19 10° E visible
21 Jan -1.7 07:00:51 10° W 07:04:01 61° S 07:07:10 10° E visible
22 Jan -1.7 06:03:23 32° WSW 06:04:33 56° S 06:07:42 10° E visible
23 Jan 0.3 05:06:41 23° ESE 05:06:41 23° ESE 05:08:07 10° E visible
23 Jan -1.7 06:38:54 12° W 06:41:44 58° S 06:44:53 10° ESE visible
24 Jan -1.9 05:42:07 61° S 05:42:08 61° S 05:45:16 10° E visible
25 Jan 1.3 04:45:13 13° E 04:45:13 13° E 04:45:35 10° E visible
25 Jan -1.6 06:17:25 22° WSW 06:19:08 49° S 06:22:14 10° ESE visible
26 Jan -0.6 05:20:28 35° ESE 05:20:28 35° ESE 05:22:32 10° ESE visible
26 Jan -0.6 06:53:14 10° W 06:55:57 26° SSW 06:58:41 10° SE visible
27 Jan -1.3 05:55:39 33° SW 05:56:13 37° SSW 05:59:10 10° SE visible
28 Jan 0.7 04:58:35 17° ESE 04:58:35 17° ESE 04:59:26 10° ESE visible
28 Jan -0.1 06:30:47 11° WSW 06:32:47 18° SSW 06:35:00 10° SSE visible
29 Jan -0.3 05:33:42 23° S 05:33:42 23° S 05:35:39 10° SE visible
30 Jan 0.3 06:08:48 11° SW 06:09:16 11° SSW 06:10:12 10° SSW visible
